This is the latest recevied weather packets stored in our database for station/object KI5RAB. If no packets are shown the sender has not sent any weather packets the latest 10 day(s).
| Time | Temp. | Humidity | Pressure | Rain* | Wind** | Luminosity | Snow |
|---|---|---|---|---|---|---|---|
| 1778172165 | 17.22° C | 80% | 1021 hPa | 0 mm | - | 238 W/m² | - |
| 1778171862 | 16.67° C | 81% | 1020.8 hPa | 0 mm | - | 188 W/m² | - |
| 1778171560 | 16.67° C | 81% | 1020.8 hPa | 0 mm | - | 154 W/m² | - |
| 1778171256 | 16.67° C | 81% | 1021.1 hPa | 0 mm | - | 155 W/m² | - |
| 1778170952 | 16.67° C | 82% | 1020.9 hPa | 0 mm | - | 180 W/m² | - |
| 1778170649 | 16.11° C | 82% | 1020.6 hPa | 0 mm | - | 167 W/m² | - |
| 1778170345 | 16.11° C | 82% | 1020.8 hPa | 0 mm | - | 121 W/m² | - |
| 1778170041 | 16.11° C | 82% | 1020.7 hPa | 0 mm | - | 142 W/m² | - |
| 1778169738 | 16.11° C | 82% | 1020.9 hPa | 0 mm | - | 140 W/m² | - |
| 1778169434 | 16.11° C | 82% | 1020.8 hPa | 0 mm | - | 157 W/m² | - |
| 1778169130 | 16.11° C | 82% | 1020.6 hPa | 0 mm | - | 182 W/m² | - |
| 1778168826 | 16.11° C | 83% | 1020.5 hPa | 0 mm | - | 155 W/m² | - |
| 1778168525 | 16.11° C | 83% | 1020.6 hPa | 0 mm | - | 119 W/m² | - |
| 1778168221 | 16.11° C | 83% | 1020.7 hPa | 0 mm | - | 94 W/m² | - |
| 1778167917 | 16.11° C | 83% | 1020.7 hPa | 0 mm | - | 80 W/m² | - |
| 1778167614 | 15.56° C | 83% | 1020.7 hPa | 0 mm | - | 88 W/m² | - |
| 1778167310 | 15.56° C | 84% | 1020.7 hPa | 0 mm | - | 75 W/m² | - |
| 1778167006 | 15.56° C | 84% | 1020.6 hPa | 0 mm | - | 71 W/m² | - |
| 1778166703 | 15.56° C | 84% | 1020.5 hPa | 0 mm | - | 70 W/m² | - |
| 1778166400 | 15.56° C | 84% | 1020.5 hPa | 0 mm | - | 81 W/m² | - |
| 1778166096 | 15.56° C | 85% | 1020.4 hPa | 0 mm | - | 73 W/m² | - |
| 1778165792 | 15.56° C | 85% | 1020.3 hPa | 0 mm | - | 74 W/m² | - |
| 1778165490 | 15.56° C | 85% | 1020.2 hPa | 0 mm | - | 86 W/m² | - |
| 1778165186 | 16.11° C | 85% | 1020 hPa | 0 mm | - | 108 W/m² | - |
| 1778164884 | 16.11° C | 86% | 1019.8 hPa | 0 mm | - | 99 W/m² | - |
* Rain latest hour (hover to see other rain measurements)
** Current wind speed in m/s (hover to see current wind gust speed)